Location: Trebic
(49.2170°N, 15.8830°E)
Time: 01:58:11
(UTC+02:00)

Transit 4A - Pass Details

Date: 31 July 2019
Orbit: 863 x 981 km, 66.8° (Epoch: 22 August)

Event Time Altitude Azimuth Distance (km) Brightness Sun altitude
Exits shadow 23:39:30 36° 154° (SSE) 1,512 8.4 -20.1°
Maximum altitude 23:41:19 44° 114° (ESE) 1,329 8.4 -20.2°
Drops below altitude 10° 23:47:20 10° 45° (NE) 2,739 10.7 -20.6°
Sets 23:50:01 0° 39° (NE) 3,685 11.5 -20.7°
